Location: Misciano
(43.5000°N, 11.9500°E)
Time: 05:33:07
(UTC+00:00)

Cosmos 405 Rocket - Pass Details

Date: 13 August 2020
Orbit: 490 x 553 km, 81.3° (Epoch: 23 September)

Event Time Altitude Azimuth Distance (km) Brightness Sun altitude
Exits shadow 19:42:00 26° 131° (SE) 1,002 3.5 -14.2°
Maximum altitude 19:43:13 33° 93° (E) 852 3.3 -14.4°
Drops below altitude 10° 19:46:37 10° 29° (NNE) 1,715 5.4 -14.9°
Sets 19:48:53 0° 20° (NNE) 2,614 6.5 -15.2°
